This is the latest recevied weather packets stored in our database for station/object NI4CE-11. If no packets are shown the sender has not sent any weather packets the latest 10 day(s).
| Time | Temp. | Humidity | Pressure | Rain* | Wind** | Luminosity | Snow |
|---|---|---|---|---|---|---|---|
| 1776911157 | 20.56° C | 100% | 1020.5 hPa | 0 mm | - | - | - |
| 1776911151 | 20° C | 100% | 1020.4 hPa | 0 mm | - | - | - |
| 1776910858 | 20° C | 100% | 1020.4 hPa | 0 mm | - | - | - |
| 1776910558 | 20.56° C | 100% | 1020.4 hPa | 0 mm | - | - | - |
| 1776910258 | 20.56° C | 100% | 1020.4 hPa | 0 mm | - | - | - |
| 1776909958 | 20.56° C | 100% | 1020.3 hPa | 0 mm | - | - | - |
| 1776909658 | 20.56° C | 100% | 1020.1 hPa | 0 mm | - | - | - |
| 1776909358 | 20.56° C | 100% | 1020.2 hPa | 0 mm | - | - | - |
| 1776909058 | 20.56° C | 100% | 1020.2 hPa | 0 mm | - | - | - |
| 1776908758 | 20.56° C | 100% | 1020.1 hPa | 0 mm | - | - | - |
| 1776908459 | 20.56° C | 100% | 1020.1 hPa | 0 mm | - | - | - |
| 1776908158 | 21.11° C | 100% | 1020.1 hPa | 0 mm | - | - | - |
| 1776907858 | 21.11° C | 100% | 1020 hPa | 0 mm | - | - | - |
| 1776907784 | 21.67° C | 100% | 1019.8 hPa | 0 mm | - | - | - |
| 1776907558 | 21.11° C | 100% | 1020 hPa | 0 mm | - | - | - |
| 1776907258 | 21.11° C | 100% | 1020 hPa | 0 mm | - | - | - |
| 1776906958 | 21.11° C | 100% | 1019.9 hPa | 0 mm | - | - | - |
| 1776906658 | 21.11° C | 100% | 1019.9 hPa | 0 mm | - | - | - |
| 1776906358 | 21.11° C | 100% | 1020 hPa | 0 mm | - | - | - |
| 1776906058 | 21.67° C | 100% | 1019.9 hPa | 0 mm | - | - | - |
| 1776905758 | 21.67° C | 100% | 1019.8 hPa | 0 mm | - | - | - |
| 1776905726 | 21.67° C | 100% | 1019.6 hPa | 0 mm | - | - | - |
| 1776905458 | 21.67° C | 100% | 1019.8 hPa | 0 mm | - | - | - |
| 1776905276 | 21.67° C | 100% | 1019.6 hPa | 0 mm | - | - | - |
| 1776905158 | 21.67° C | 100% | 1019.6 hPa | 0 mm | - | - | - |
* Rain latest hour (hover to see other rain measurements)
** Current wind speed in m/s (hover to see current wind gust speed)